Terminal Aerodrome Forecast
Issued by NWS Melbourne, FL

Home | Current Version | Previous Version | Text Only | Print | Product List | Glossary On
Versions: 1 2 3 4 5 6 7 8 9 10 11 12 13 14 15 16 17 18
000
FTUS42 KMLB 220900 AAB
TAFMLB
TAF AMD
KMLB 220931Z 2210/2306 29004KT 1SM BR BKN002
      TEMPO 2210/2212 1/2SM FG VV002
     FM221400 34008KT P6SM FEW030 BKN250
     FM221800 02010KT P6SM SCT035 BKN250
     FM230000 01008KT P6SM SCT250=

USA.gov is the U.S. government's official web portal to all federal, state and local government web resources and services.